Ellensburg, WA

7:54 PM PDT on October 23, 2017 (GMT -0700)
Bowers

Weather History for KELN - January, 2013

Change the Weather History Date:

Sunday, January 13, 2013

  Actual Average (KYKM) Record (KYKM)
Temperature  
Mean Temperature 15 °F -  
Max Temperature 23 °F 36 °F 61 °F (1994)
Min Temperature 7 °F 22 °F -18 °F (1950)
Degree Days  
Heating Degree Days 50    
Moisture  
Dew Point 7 °F    
Average Humidity 75    
Maximum Humidity 81    
Minimum Humidity 65    
Precipitation  
Precipitation 0.00 in - - ()
Sea Level Pressure  
Sea Level Pressure 30.47 in    
Wind  
Wind Speed 2 mph (ENE)    
Max Wind Speed 6 mph    
Max Gust Speed -    
Visibility 10 miles    
Events      
Averages and records for this station are not official NWS values.
T = Trace of Precipitation, MM = Missing Value Source: NWS Daily Summary

Daily Weather History Graph

Daily Weather History Graph

Search for Another Location

Airport or City:

Trip Planner

Search our weather history database for the weather conditions in past years. The results will help you decide how hot, cold, wet, or windy it might be!

Date:

Astronomy

Jan. 13, 2013 Rise Set
Actual Time 7:44 AM PST 4:37 PM PST
Civil Twilight 7:10 AM PST 5:12 PM PST
Nautical Twilight 6:32 AM PST 5:50 PM PST
Astronomical Twilight 5:55 AM PST 6:26 PM PST
Moon 8:34 AM PST (1/13) 7:35 PM PST (1/13)
Length of Visible Light 10h 02m
Length of Day
8h 53m
Waxing Crescent, 6% of the Moon is Illuminated
Jan 13
Waxing Crescent
Jan 18
First Quarter
Jan 26
Full
Feb 3
Last Quarter
Feb 9
New

Hourly Weather History & Observations

Time (PST) Temp. Windchill Dew Point Humidity Pressure Visibility Wind Dir Wind Speed Gust Speed Precip Events Conditions
12:53 AM 10.0 °F 3.6 °F 3.9 °F 76% 30.42 in 9.0 mi East 3.5 mph - N/A   Partly Cloudy
1:53 AM 8.1 °F - 1.9 °F 76% 30.43 in 9.0 mi Calm Calm - N/A   Clear
2:53 AM 9.0 °F - 3.9 °F 80% 30.43 in 10.0 mi Calm Calm - N/A   Clear
3:53 AM 7.0 °F - 1.9 °F 80% 30.43 in 7.0 mi Calm Calm - N/A   Clear
4:53 AM 8.1 °F -2.0 °F 1.9 °F 76% 30.42 in 10.0 mi East 5.8 mph - N/A   Clear
5:53 AM 8.1 °F -0.5 °F 1.9 °F 76% 30.45 in 10.0 mi WNW 4.6 mph - N/A   Clear
6:53 AM 8.1 °F 1.4 °F 1.9 °F 76% 30.47 in 10.0 mi East 3.5 mph - N/A   Clear
7:53 AM 8.1 °F - 1.9 °F 76% 30.49 in 10.0 mi Calm Calm - N/A   Clear
8:53 AM 10.9 °F - 3.9 °F 73% 30.51 in 10.0 mi Calm Calm - N/A   Clear
9:53 AM 12.9 °F - 8.1 °F 81% 30.51 in 10.0 mi Calm Calm - N/A   Clear
10:53 AM 16.0 °F - 9.0 °F 74% 30.51 in 10.0 mi Calm Calm - N/A   Clear
11:53 AM 19.0 °F - 10.9 °F 71% 30.49 in 10.0 mi Calm Calm - N/A   Clear
12:53 PM 19.9 °F - 10.9 °F 68% 30.48 in 10.0 mi Calm Calm - N/A   Clear
1:53 PM 23.0 °F - 12.9 °F 65% 30.48 in 10.0 mi Calm Calm - N/A   Clear
2:53 PM 21.0 °F - 12.0 °F 68% 30.48 in 10.0 mi Calm Calm - N/A   Clear
3:53 PM 19.9 °F - 12.0 °F 71% 30.48 in 10.0 mi Calm Calm - N/A   Partly Cloudy
4:53 PM 19.0 °F - 10.9 °F 71% 30.48 in 10.0 mi Calm Calm - N/A   Clear
5:53 PM 16.0 °F 8.8 °F 9.0 °F 74% 30.48 in 8.0 mi ENE 4.6 mph - N/A   Clear
6:53 PM 15.1 °F 7.7 °F 9.0 °F 77% 30.47 in 8.0 mi ENE 4.6 mph - N/A   Scattered Clouds
7:53 PM 14.0 °F - 8.1 °F 77% 30.48 in 9.0 mi Calm Calm - N/A   Mostly Cloudy
8:53 PM 12.9 °F 3.8 °F 7.0 °F 77% 30.48 in 10.0 mi North 5.8 mph - N/A   Overcast
9:53 PM 15.1 °F - 9.0 °F 77% 30.47 in 10.0 mi Calm Calm - N/A   Mostly Cloudy
10:53 PM 16.0 °F - 9.0 °F 74% 30.47 in 10.0 mi Calm Calm - N/A   Overcast
11:53 PM 18.0 °F - 12.0 °F 78% 30.46 in 10.0 mi Calm Calm - N/A   Overcast